Location: Borz?cin
(51.1714°N, 19.6030°E)
Time: 22:05:13
(UTC+00:00)

Exosat Rocket - Pass Details

Date: 19 May 2025
Orbit: 761 x 2512 km, 72.3° (Epoch: 16 June)

Event Time Altitude Azimuth Distance (km) Brightness Sun altitude
Rises 21:08:39 0° 334° (NNW) 3,441 8.7 -16.2°
Reaches altitude 10° 21:11:19 10° 341° (NNW) 2,395 7.4 -16.3°
Maximum altitude 21:16:14 42° 53° (NE) 1,082 4.4 -16.6°
Enters shadow 21:19:39 18° 117° (ESE) 1,834 5.0 -16.8°
